Weather in Mooresville

United States     35°35′04″N   80°48′35″W
temp.,
°C
wind,
m/s
gust,
m/s
humid.,
%
clouds,
%
prec.,
mm/h
press.,
hPa
HPBL,
m
17 september, fri
fri1723:00+22n247595 0.0 101988
02:00+21nne3678100 0.0 1019192
05:00+20nne249286 0.1 1019114
08:00+20nne2692100 0.1 1020247
11:00+23ne3577100 0.0 1021449
14:00+28nne3354100 0.0 10201114
17:00+29ne325068 0.0 10181476
20:00+24ne22719 0.0 101818
18 september, sat
sat1823:00+22ne11825 0.4 101911
02:00+20n11900 0.6 101913
05:00+19ne2398100 0.0 101979
08:00+19ne2396100 0.0 1020100
11:00+26nne2267100 0.0 1020652
14:00+32ene1243100 0.0 10181877
17:00+29e224895 0.0 1016255
20:00+26e225794 0.1 101727
19 september, sun
sun1923:00+24sse1170100 0.1 101911
02:00+22e1176100 0.1 101911
05:00+21nne1181100 0.0 101911
08:00+21nne2480100 0.0 1020107
11:00+28ene2356100 0.1 1021746
14:00+31e3344100 0.1 10192088
17:00+28ssw355699 0.1 1018279
20:00+24wsw267585 0.2 1019206
20 september, mon
mon2023:00+22sw118568 0.0 102011
02:00+21sse1190100 0.0 102111
05:00+20se229499 0.3 102148
08:00+21ese239324 0.6 1022125
11:00+26se4561100 0.0 10231171
14:00+30se4645100 0.3 10212055
17:00+27s3655100 0.1 1020346
20:00+23ese3679100 0.5 1021116
21 september, tue
tue2123:00+21ese3685100 0.0 1022151
02:00+21sse3990100 0.2 1022313
05:00+20ese2697100 0.1 1022245
08:00+19e2593100 0.1 1023200
11:00+24e3564100 0.0 1023648
14:00+25ese2357100 0.0 10221009
17:00+22e1181100 0.4 102131
20:00+20nnw228491 0.4 102044